Weather in Satti

Russia / Chechen Republic     42°51′11″N   45°42′56″E
temp.,
°C
wind,
m/s
gust,
m/s
humid.,
%
clouds,
%
prec.,
mm/h
press.,
hPa
HPBL,
m
18 may, tue
tue1800:00+11s2367100 0.1 100937
03:00+8s118835 0.8 101017
06:00+10n118875 0.1 1011207
09:00+11n329199 0.8 1012538
12:00+10n3399100 1.4 1013295
15:00+10nne129682 1.6 1014236
18:00+12nne21789 0.0 1013399
21:00+8sse22880 0.0 101528
19 may, wed
wed1900:00+7s34680 0.0 101450
03:00+7s45560 0.0 101367
06:00+11sse35550 0.0 1011110
09:00+21s14311 0.0 10071647
12:00+22nw24333 0.0 10081901
15:00+16n446991 0.3 10121004
18:00+11n239598 0.4 1016356
21:00+10n2299100 1.4 1017237
20 may, thu
thu2000:00+8n2299100 0.5 1018255
03:00+8nne119985 0.6 1018128
06:00+9e128855 0.0 1018297
09:00+14nne33564 0.0 1016849
12:00+19n44400 0.0 10141320
15:00+19n32460 0.0 1015910
18:00+15n21640 0.0 1017176
21:00+11sse45630 0.0 101872
21 may, fri
fri2100:00+11s45630 0.0 101882
03:00+11s45730 0.0 101876
06:00+14sse45600 0.0 1017100
09:00+24ese12260 0.0 10141203
12:00+27nne24254 0.0 10122608
15:00+24nnw33404 0.0 10131362
18:00+20n12640 0.0 1015111
21:00+15s44510 0.0 101755
22 may, sat
sat2200:00+14s45490 0.0 101668
03:00+14s45550 0.0 101671
06:00+16s45520 0.0 101581
09:00+26e12240 0.0 10121869
12:00+28n33260 0.0 10112516
15:00+25n42384 0.0 10111150
18:00+21n12602 0.0 101196
21:00+16s34665 0.1 101361